Flag for U.S.A. Weather past 2 weeks in Springfield, Missouri, U.S.A.

Now
70 °F

Sunny.


Feels Like: 77 °F
Forecast: 58 / 69 °F
Wind: 6 mph from South

Location: Springfield Regional Airport


UV Index: 0 (Low)

Visibility: 10 mi


Pressure: 30.02 "Hg

Humidity: 53%

Dew point: 52 °F

Location of SpringfieldLocation

Historic Weather in Springfield

°F

Springfield temperature yesterday

Maximum temperature yesterday: 75 °F (at 4:52 PM)
Minimum temperature yesterday: 49 °F (at 5:52 AM)
Average temperature yesterday: 63 °F

Past Weeks' High & Low Weather Summary

 TemperatureHumidityPressure
High80 °F (Apr 10, 1:52 PM)93% (Apr 7, 8:52 AM)30.27 "Hg (Apr 7, 8:52 AM)
Low25 °F (Apr 15, 6:52 AM)26% (Apr 9, 1:52 PM)29.50 "Hg (Apr 13, 4:52 PM)
Average56 °F57%29.99 "Hg
* Reported Apr 5 6:52 PM — Apr 20 6:52 PM, Springfield, Weather by CustomWeather, © 2014

Note: Actual official high and low records may vary slightly from our data, if they occured in-between our weather recording intervals... More about our weather records

Advertising

Historic Weather Conditions — Data for Previous 24 hours

 ConditionsComfort  
Time TempWeatherWind HumidityBarometerVisibility
6:52 PM
Apr 20
73 °FSunny.No wind48%30.03 "Hg10 mi
5:52 PM75 °FSunny.6 mph43%30.04 "Hg10 mi
4:52 PM75 °FPartly sunny.7 mph42%30.05 "Hg10 mi
3:52 PM74 °FSunny.7 mph43%30.06 "Hg10 mi
2:52 PM75 °FSunny.10 mph43%30.09 "Hg10 mi
1:52 PM74 °FSunny.8 mph41%30.10 "Hg10 mi
12:52 PM74 °FScattered clouds.14 mph43%30.11 "Hg10 mi
11:52 AM73 °FPassing clouds.14 mph46%30.13 "Hg10 mi
10:52 AM72 °FSunny.12 mph48%30.15 "Hg10 mi
9:52 AM68 °FSunny.13 mph55%30.16 "Hg10 mi
8:52 AM64 °FPassing clouds.10 mph61%30.16 "Hg10 mi
7:52 AM58 °FSunny.9 mph70%30.16 "Hg10 mi
6:52 AM55 °FClear.10 mph74%30.15 "Hg10 mi
5:52 AM56 °FClear.9 mph70%30.14 "Hg10 mi
4:52 AM56 °FClear.10 mph70%30.14 "Hg10 mi
3:52 AM58 °FClear.9 mph65%30.13 "Hg10 mi
2:52 AM57 °FClear.8 mph64%30.13 "Hg10 mi
1:52 AM58 °FClear.9 mph60%30.13 "Hg10 mi
12:52 AM60 °FClear.10 mph56%30.12 "Hg10 mi
11:52 PM
Apr 19
63 °FClear.12 mph48%30.11 "Hg10 mi
10:52 PM60 °FClear.9 mph58%30.11 "Hg10 mi
9:52 PM59 °FClear.7 mph62%30.11 "Hg10 mi
8:52 PM60 °FClear.7 mph58%30.10 "Hg10 mi
Weather by CustomWeather, © 2014

See weather overview